Location: Newark
(44.2003°N, 3.2583°E)
Time: 04:47:28
(UTC+00:00)

Envisat - Pass Details

Date: 29 September 2019
Orbit: 764 x 766 km, 98.1° (Epoch: 17 October)

Event Time Altitude Azimuth Distance (km) Brightness Sun altitude
Rises 18:48:20 0° 197° (SSW) 3,218 6.3 -14.4°
Reaches altitude 10° 18:50:58 10° 209° (SSW) 2,297 5.7 -14.9°
Maximum altitude 18:55:13 27° 266° (W) 1,459 5.3 -15.6°
Drops below altitude 10° 18:59:28 10° 323° (NW) 2,311 6.2 -16.4°
Sets 19:02:09 0° 336° (NNW) 3,242 6.8 -16.8°
